Weather History for Istres, France

Change the Weather History Date:

Monday, July 22, 2013

  Actual Average (LFML) Record (LFML)
Temperature  
Mean Temperature 82 °F -  
Max Temperature 95 °F 86 °F 96 °F (2006)
Min Temperature 68 °F 66 °F 60 °F (2001)
Cooling Degree Days 16    
Growing Degree Days 32 (Base 50)    
Moisture  
Dew Point 60 °F    
Average Humidity 51    
Maximum Humidity 78    
Minimum Humidity 23    
Precipitation  
Precipitation 0.00 in - - ()
Sea Level Pressure  
Sea Level Pressure 30.00 in    
Wind  
Wind Speed 4 mph ()    
Max Wind Speed 15 mph    
Max Gust Speed -    
Visibility 6.2 miles    
Events      
Averages and records for this station are not official NWS values.
T = Trace of Precipitation, MM = Missing Value Source: Averaged Metar Reports

Daily Weather History Graph

Daily Weather History Graph

Search for Another Location

Airport:

Trip Planner

Search our weather history database for the weather conditions in past years. The results will help you decide how hot, cold, wet, or windy it might be!

Date:

Astronomy

Jul. 22, 2013 Rise Set
Actual Time 6:19 AM CEST 9:13 PM CEST
Civil Twilight 5:45 AM CEST 9:47 PM CEST
Nautical Twilight 5:02 AM CEST 10:29 PM CEST
Astronomical Twilight 4:12 AM CEST 11:19 PM CEST
Moon 8:44 PM CEST (7/22) 5:58 AM CEST (7/22)
Length of Visible Light 16h 01m
Length of Day
14h 53m
Full, 100% of the Moon is Illuminated
Jul 22
Full
Jul 22
Full
Jul 29
Last Quarter
Aug 6
New
Aug 14
First Quarter

Hourly Weather History & Observations

Time (CEST) Temp. Heat Index Dew Point Humidity Pressure Visibility Wind Dir Wind Speed Gust Speed Precip Events Conditions
12:00 AM 75.2 °F - 64.4 °F 69% 30.04 in 6.2 mi ENE 3.5 mph - N/A   Unknown
12:30 AM 75.2 °F - 64.4 °F 69% 30.04 in 6.2 mi Calm Calm - N/A   Unknown
1:00 AM 75.2 °F - 64.4 °F 69% 30.04 in 6.2 mi Calm Calm - N/A   Unknown
1:30 AM 73.4 °F - 62.6 °F 69% 30.04 in 6.2 mi North 1.2 mph - N/A   Unknown
2:00 AM 71.6 °F - 62.6 °F 73% 30.04 in 6.2 mi Calm Calm - N/A   Unknown
2:30 AM 71.6 °F - 62.6 °F 73% 30.04 in 6.2 mi Calm Calm - N/A   Unknown
3:00 AM 71.6 °F - 62.6 °F 73% 30.04 in 6.2 mi Calm Calm - N/A   Unknown
3:30 AM 71.6 °F - 62.6 °F 73% 30.04 in 6.2 mi NE 2.3 mph - N/A   Unknown
4:00 AM 69.8 °F - 62.6 °F 78% 30.01 in 6.2 mi NE 3.5 mph - N/A   Unknown
4:30 AM 68.0 °F - 60.8 °F 78% 30.01 in 6.2 mi NE 5.8 mph - N/A   Unknown
5:00 AM 68.0 °F - 60.8 °F 78% 30.01 in 6.2 mi NE 3.5 mph - N/A   Unknown
5:30 AM 68.0 °F - 60.8 °F 78% 30.01 in 6.2 mi NNE 2.3 mph - N/A   Unknown
6:00 AM 68.0 °F - 60.8 °F 78% 30.01 in 6.2 mi NNE 4.6 mph - N/A   Unknown
6:30 AM 68.0 °F - 60.8 °F 78% 30.01 in 6.2 mi NNE 5.8 mph - N/A   Unknown
7:00 AM 69.8 °F - 60.8 °F 73% 30.01 in 6.2 mi NE 5.8 mph - N/A   Unknown
7:30 AM 71.6 °F - 62.6 °F 73% 30.01 in 6.2 mi NE 5.8 mph - N/A   Unknown
8:00 AM 73.4 °F - 62.6 °F 69% 30.01 in 6.2 mi NE 5.8 mph - N/A   Unknown
8:30 AM 77.0 °F - 62.6 °F 61% 30.01 in 6.2 mi ENE 6.9 mph - N/A   Unknown
9:00 AM 80.6 °F 81.8 °F 62.6 °F 54% 30.01 in 6.2 mi NE 3.5 mph - N/A   Unknown
9:30 AM 82.4 °F 83.4 °F 62.6 °F 51% 30.01 in 6.2 mi ENE 4.6 mph - N/A   Unknown
10:00 AM 84.2 °F 83.8 °F 59.0 °F 42% 30.01 in 6.2 mi Variable 2.3 mph - N/A   Unknown
10:30 AM 87.8 °F 86.5 °F 57.2 °F 35% 30.01 in 6.2 mi Variable 3.5 mph - N/A   Unknown
11:00 AM 89.6 °F 88.1 °F 57.2 °F 33% 30.01 in 6.2 mi Variable 3.5 mph - N/A   Unknown
11:30 AM 89.6 °F 87.3 °F 53.6 °F 29% 30.01 in 6.2 mi NNW 5.8 mph - N/A   Unknown
12:00 PM 91.4 °F - 51.8 °F 26% 30.01 in 6.2 mi North 5.8 mph - N/A   Unknown
12:30 PM 91.4 °F 89.4 °F 55.4 °F 29% 30.01 in 6.2 mi NNW 6.9 mph - N/A   Unknown
1:00 PM 93.2 °F 90.8 °F 53.6 °F 26% 30.01 in 6.2 mi Variable 5.8 mph - N/A   Unknown
1:30 PM 93.2 °F - 51.8 °F 24% 29.98 in 6.2 mi NW 6.9 mph - N/A   Unknown
2:00 PM 93.2 °F - 50.0 °F 23% 29.98 in 6.2 mi NW 6.9 mph - N/A   Unknown
2:30 PM 95.0 °F 93.7 °F 57.2 °F 28% 29.98 in 6.2 mi WSW 12.7 mph - N/A   Unknown
3:00 PM 95.0 °F - 51.8 °F 23% 29.98 in 6.2 mi WSW 13.8 mph - N/A   Unknown
3:30 PM 93.2 °F 91.9 °F 57.2 °F 30% 29.98 in 6.2 mi WSW 13.8 mph - N/A   Unknown
4:00 PM 95.0 °F 93.0 °F 55.4 °F 26% 29.98 in 6.2 mi WSW 15.0 mph - N/A   Unknown
4:30 PM 93.2 °F 91.9 °F 57.2 °F 30% 29.95 in 6.2 mi WSW 15.0 mph - N/A   Unknown
5:00 PM 93.2 °F 93.3 °F 60.8 °F 34% 29.95 in 6.2 mi WSW 12.7 mph - N/A   Unknown
5:30 PM 93.2 °F 93.3 °F 60.8 °F 34% 29.95 in 6.2 mi WSW 12.7 mph - N/A   Unknown
6:00 PM 91.4 °F 90.7 °F 59.0 °F 34% 29.95 in 6.2 mi WSW 13.8 mph - N/A   Unknown
6:30 PM 89.6 °F 91.1 °F 64.4 °F 43% 29.95 in 6.2 mi SW 13.8 mph - N/A   Unknown
7:00 PM 87.8 °F 89.4 °F 64.4 °F 46% 29.95 in 6.2 mi WSW 12.7 mph - N/A   Unknown
7:30 PM 86.0 °F 86.1 °F 60.8 °F 43% 29.98 in 6.2 mi WSW 10.4 mph - N/A   Unknown
8:00 PM 86.0 °F 85.4 °F 59.0 °F 40% 29.95 in 6.2 mi WSW 9.2 mph - N/A   Unknown
8:30 PM 86.0 °F 86.1 °F 60.8 °F 43% 29.95 in 6.2 mi WSW 6.9 mph - N/A   Unknown
9:00 PM 84.2 °F 85.0 °F 62.6 °F 48% 29.98 in 6.2 mi WSW 3.5 mph - N/A   Unknown
9:30 PM 80.6 °F 81.8 °F 62.6 °F 54% 29.98 in 6.2 mi WSW 3.5 mph - N/A   Unknown
10:00 PM 80.6 °F 81.8 °F 62.6 °F 54% 29.98 in 6.2 mi NE 8.1 mph - N/A   Unknown
10:30 PM 78.8 °F - 60.8 °F 54% 30.01 in 6.2 mi NE 3.5 mph - N/A   Unknown
11:00 PM 78.8 °F - 59.0 °F 51% 29.98 in 6.2 mi SSE 3.5 mph - N/A   Unknown
11:30 PM 78.8 °F - 59.0 °F 51% 29.98 in 6.2 mi East 3.5 mph - N/A   Unknown